Voltar ao catálogo

THORAD DELTA 1 DEB

AtivoUNKNOWN
NORAD 8307·DEBRIS·🇺🇸 United States

Lançado Nov 15, 1974 de Vandenberg Space Force Base

Loading…

Próximas Passagens (próximas 24 horas)

TLE

AtualizadoSource: Space-Track

Época: Sep 14, 2026, 13:51 UTC

1  8307U 74089BQ  26257.57767139  .00000042  00000-0  93102-3 0  9997
2  8307 101.1410 288.7517 0454304 144.5164   9.4613 11.75332164223802

Acompanhe THORAD DELTA 1 DEB em tempo real com AllMySat

Download on the App Store